Location: Most
(50.5133°N, 13.6207°E)
Time: 09:48:20
(UTC+02:00)

ISS - Pass Details

Date: 18 July 2018
Orbit: 402 x 408 km, 51.6° (Epoch: 17 July)

Event Time Altitude Azimuth Distance (km) Brightness Sun altitude
Rises 03:58:15 0° 285° (WNW) 2,332 -0.2 -9.6°
Reaches altitude 10° 04:00:21 10° 283° (WNW) 1,471 -1.3 -9.4°
Maximum altitude 04:03:37 66° 200° (SSW) 449 -3.9 -9.0°
Drops below altitude 10° 04:06:53 10° 118° (ESE) 1,467 -0.8 -8.7°
Sets 04:08:58 0° 116° (ESE) 2,326 0.2 -8.5°
